Theta_e
327 327 327 326 326 326 326 326 327 325 320 318 320 322 322 322 322 322 324 325 325 327 329 332 336 341 345 346 347 347 348 349 349 348 347 347 347 347 347 347 346 347 349 350 351 351 350 350 349 348 348 349 350 350 351 350 349 350 351 351 351 352 353 354 354 353 352 351 350 349 349 350 350 351 351 351 351 351 350 349 350 351 351 350 349
328 327 327 327 327 326 326 325 326 325 322 319 318 319 321 322 322 322 323 323 323 325 325 325 325 331 338 341 344 346 346 347 348 348 348 348 347 347 348 348 348 347 348 349 350 351 350 349 348 347 347 348 348 349 350 349 348 349 350 351 351 351 352 353 353 353 353 351 351 351 350 350 350 351 351 351 351 352 352 351 349 350 351 351 352
330 327 327 328 328 326 327 326 324 324 323 320 318 318 319 320 321 322 323 323 324 324 323 322 323 326 331 335 338 342 345 346 347 348 348 349 348 348 348 349 349 348 349 350 350 350 349 348 347 347 347 347 347 347 349 348 347 347 349 350 351 351 351 352 353 354 353 351 352 352 352 351 351 351 351 351 351 352 353 352 350 351 352 352 352
330 326 327 329 328 326 326 324 323 325 325 322 319 318 319 321 322 323 324 325 324 323 323 322 323 324 327 329 331 334 338 342 345 347 348 349 349 349 348 348 348 349 349 350 350 350 349 347 347 348 347 347 348 348 348 348 346 347 348 349 350 350 350 350 352 354 353 352 352 352 352 352 352 350 349 349 351 352 353 351 349 351 351 351 352
329 326 329 332 331 329 329 326 324 325 329 327 322 319 320 323 324 325 326 326 324 323 323 323 323 325 325 326 326 327 331 336 341 344 346 347 349 349 348 348 349 349 349 349 350 350 349 346 346 347 347 347 348 349 350 349 348 346 347 347 346 348 350 350 351 353 353 353 352 352 352 353 352 349 347 349 350 351 352 351 349 349 349 350 351
329 328 332 334 334 333 332 330 328 326 327 328 325 322 322 324 324 324 325 327 328 327 325 324 325 327 327 327 326 326 328 332 336 340 343 345 346 348 348 348 348 349 349 348 348 349 349 348 347 347 348 347 348 350 351 351 348 346 346 346 346 348 350 351 352 352 353 353 353 352 351 352 353 351 347 347 348 348 350 351 350 348 348 349 351
330 331 333 334 333 334 332 331 331 329 327 327 326 325 326 326 326 325 325 326 328 328 327 327 327 328 328 328 328 328 329 330 331 335 340 344 346 348 347 347 346 347 348 347 346 347 349 349 349 349 349 348 348 350 350 348 347 346 345 345 346 347 348 349 351 352 353 353 352 352 351 351 354 354 349 345 346 347 348 350 353 352 348 348 350
329 331 333 333 333 332 330 329 330 330 329 328 328 328 328 327 327 327 327 326 326 327 328 329 328 328 329 329 329 329 329 330 331 332 336 341 344 345 346 347 347 346 347 346 345 346 346 347 350 350 350 349 348 349 348 347 346 347 346 345 346 347 346 347 350 351 351 352 352 352 352 351 353 354 352 348 346 346 346 348 352 353 350 351 351
327 328 330 331 330 329 329 329 330 331 331 330 330 330 329 329 328 328 328 328 327 327 328 329 328 327 327 328 329 329 328 331 333 331 331 334 336 337 339 343 345 345 345 346 346 347 346 346 348 350 349 349 348 348 347 347 347 348 347 347 347 348 349 349 349 349 349 351 352 352 351 351 353 354 355 351 345 345 345 346 349 349 349 351 351
326 326 327 328 328 328 328 329 330 330 331 331 331 331 330 330 329 329 329 328 327 326 326 327 329 327 324 325 327 328 330 333 333 330 328 328 329 331 334 338 341 342 344 346 347 347 347 346 347 347 346 346 346 346 347 347 347 347 347 348 348 348 350 350 349 348 348 348 348 351 352 351 350 352 354 352 347 346 345 345 348 348 349 350 350
325 325 325 325 326 328 329 329 329 330 330 330 330 331 330 329 329 329 328 326 325 325 324 326 328 326 323 323 324 326 329 332 331 328 328 327 328 330 332 334 337 338 341 344 345 346 346 345 345 346 346 345 344 344 346 346 346 346 346 347 348 347 349 349 349 349 349 347 347 350 352 350 348 349 351 351 350 349 348 348 350 350 349 350 349
324 325 325 326 327 329 329 329 330 330 330 329 329 330 329 329 328 329 327 325 324 323 324 325 326 326 324 323 323 324 326 328 328 327 328 328 328 329 330 331 334 336 338 339 342 345 345 344 344 345 347 346 345 345 347 346 347 347 346 346 347 347 347 348 348 348 347 347 348 350 349 348 347 349 349 349 349 349 349 353 354 351 350 349 347
325 326 327 327 328 329 329 329 329 329 330 329 329 329 329 329 328 328 327 326 324 323 323 324 325 326 326 326 325 325 325 327 327 327 327 327 328 329 329 329 331 333 335 336 340 343 344 344 345 345 344 344 345 346 346 345 346 347 346 344 344 344 345 346 346 346 346 347 348 347 346 346 346 346 346 347 348 349 351 355 356 352 349 348 346
327 327 328 328 328 328 328 329 329 329 329 329 328 329 329 329 328 327 327 326 326 326 325 325 327 328 328 328 328 326 327 328 328 326 326 326 328 328 328 329 329 330 332 335 339 341 340 341 344 345 345 346 345 345 345 344 346 347 346 344 344 344 343 344 344 344 345 346 346 345 344 344 344 344 343 344 346 348 350 352 353 352 350 349 348
327 327 327 327 327 327 327 327 328 328 328 328 328 329 328 328 328 327 327 327 327 327 327 326 328 329 329 330 329 328 328 329 328 326 325 326 327 328 328 329 330 330 331 333 337 338 337 338 341 342 343 344 345 345 345 345 345 346 345 345 345 345 344 343 342 342 343 344 345 345 344 343 343 342 342 342 343 345 346 347 348 349 348 348 348
327 326 325 325 325 324 324 325 327 327 327 328 328 328 328 327 327 326 326 326 327 327 327 327 327 328 330 329 329 329 329 329 328 326 325 325 326 327 328 330 331 331 332 333 335 336 337 337 338 340 340 339 341 342 343 343 344 344 344 345 344 344 344 342 342 342 342 343 344 344 344 343 343 342 341 341 342 343 344 345 346 346 346 346 346
324 323 322 321 320 320 321 323 325 326 327 327 327 327 326 326 326 325 325 326 326 326 327 328 328 328 329 329 329 330 330 329 329 327 326 325 325 326 328 330 331 331 332 333 334 335 336 336 336 337 337 337 338 339 340 342 343 343 344 344 344 344 343 343 343 343 343 343 343 343 343 343 343 343 343 342 342 343 344 345 345 345 346 346 346
322 321 320 319 319 319 320 322 324 325 326 326 325 325 325 325 325 325 325 325 326 326 327 328 329 329 329 329 329 329 329 329 329 328 328 327 326 327 328 329 330 331 332 333 333 333 334 334 334 334 334 336 338 337 337 339 341 343 345 345 345 344 344 345 346 346 345 344 343 343 343 343 344 344 344 344 344 344 345 345 344 343 345 346 346
321 320 320 321 321 322 322 322 323 324 324 324 324 324 324 324 324 324 325 325 326 326 327 328 328 329 329 329 329 329 329 330 330 330 329 328 327 327 328 328 329 331 332 333 332 332 334 334 333 333 333 334 335 336 336 337 338 340 344 346 344 344 345 346 347 346 346 345 344 344 343 342 343 344 344 344 345 345 346 346 344 344 346 347 346
319 319 320 321 322 322 322 322 322 323 323 323 323 323 323 323 324 324 324 325 325 326 326 327 327 328 328 329 329 329 329 330 330 330 329 329 328 328 328 328 328 330 332 333 333 333 334 334 335 335 335 334 334 335 336 336 336 338 341 343 343 344 345 346 345 346 346 345 344 345 345 344 343 343 343 344 344 345 345 344 343 342 344 345 345
319 319 320 321 321 321 321 321 322 323 323 322 322 322 323 324 325 325 324 324 324 324 326 326 327 327 327 328 328 328 328 328 329 330 329 328 328 328 327 328 328 328 330 331 332 333 334 334 334 335 335 334 335 335 334 335 336 337 338 339 340 343 345 346 345 346 346 345 345 345 346 346 345 344 343 344 345 345 345 344 341 340 341 342 343
319 319 320 320 320 320 321 321 321 322 321 320 321 323 323 324 324 324 324 325 325 325 325 326 326 327 326 326 326 326 326 326 327 328 328 328 328 328 328 328 328 328 329 329 330 331 332 332 333 334 334 333 334 333 333 334 334 335 335 336 337 341 344 345 344 345 345 345 346 345 344 344 344 343 343 344 344 345 346 345 343 341 340 340 340
318 318 319 319 319 320 321 320 320 320 320 319 320 322 323 323 323 323 324 324 324 324 324 324 324 324 324 324 324 324 323 324 325 325 326 327 327 327 327 328 328 329 329 329 329 329 330 331 331 332 333 332 332 333 333 334 334 334 334 335 336 339 341 342 343 343 344 344 345 345 344 343 343 344 344 344 344 345 345 345 344 343 342 339 338
317 318 318 318 318 320 320 319 319 319 319 319 320 321 322 322 322 322 322 322 322 322 322 322 322 322 322 322 322 322 322 322 323 324 324 324 325 325 325 326 327 327 328 328 329 328 329 329 329 330 330 331 331 331 331 332 334 334 333 334 335 337 339 340 341 342 343 343 344 343 343 344 345 346 345 344 345 345 344 344 345 346 344 343 341
317 317 317 317 317 318 319 318 318 318 318 318 318 319 320 321 322 322 321 321 320 320 320 320 319 319 319 319 319 320 320 321 322 322 323 323 324 324 324 325 325 326 327 327 328 328 328 328 328 328 329 329 329 330 331 331 332 333 333 333 334 335 336 337 338 339 340 342 343 344 344 343 345 346 345 345 346 346 345 344 345 346 346 345 345
316 315 316 316 316 317 318 318 318 318 317 317 318 318 319 320 321 321 320 318 318 318 318 318 317 316 317 317 317 318 318 319 320 321 322 322 322 323 324 325 325 325 325 327 328 328 329 329 329 329 329 329 328 329 330 330 330 331 332 332 333 333 334 335 335 336 337 339 341 344 345 344 344 345 345 344 344 344 344 344 345 345 345 345 345
315 315 315 316 316 316 316 317 318 318 317 317 317 318 318 318 319 320 319 317 317 317 316 315 314 314 314 315 316 316 316 317 319 320 321 321 321 321 323 325 326 326 325 326 327 328 329 329 329 328 328 328 328 328 329 329 330 330 331 332 334 334 334 334 335 334 335 337 339 341 343 344 345 345 344 344 344 344 344 345 345 344 343 344 344
315 315 315 315 316 315 315 316 317 317 317 317 317 318 318 317 318 318 318 316 315 315 314 314 313 312 312 313 313 314 315 316 317 318 319 319 319 320 322 324 325 326 326 326 327 327 327 327 328 328 328 329 330 331 332 332 332 333 334 335 336 336 336 336 335 334 334 336 338 341 342 343 344 345 344 345 345 345 344 345 345 344 344 345 345
315 315 314 315 315 314 314 316 317 317 317 317 317 317 317 317 317 317 316 315 314 314 313 313 312 312 312 311 311 312 313 315 316 317 317 317 318 319 320 322 323 325 326 327 327 327 327 328 328 329 330 331 332 333 334 334 335 336 336 337 337 337 338 339 338 336 335 336 337 340 343 342 343 343 344 344 345 344 344 345 345 344 344 345 346
315 314 314 315 314 314 314 315 316 316 316 316 317 317 317 316 316 316 315 314 313 313 313 312 311 312 312 312 312 311 312 314 316 316 316 317 318 318 319 321 322 323 325 326 327 328 328 329 329 329 330 331 332 332 333 333 334 335 336 337 337 336 336 337 338 337 338 338 337 339 341 341 341 342 342 343 343 343 343 344 344 344 344 344 345
314 314 314 314 313 313 314 315 315 315 315 316 316 316 316 316 316 315 314 313 313 312 313 312 311 311 312 313 314 313 313 314 315 315 316 317 317 318 318 320 321 322 323 324 325 327 328 328 329 329 329 330 330 330 331 332 332 332 333 334 335 335 334 334 335 335 337 338 339 339 339 338 340 341 341 342 342 342 343 343 343 344 344 344 344
313 314 313 312 312 313 313 314 314 314 314 315 315 315 315 315 315 315 314 313 312 312 312 313 312 311 311 312 313 313 314 314 314 315 315 316 316 317 317 318 319 320 321 322 323 325 326 326 327 327 328 329 329 329 330 330 330 331 331 331 333 334 334 334 335 335 335 336 337 337 336 336 338 339 339 340 341 341 342 342 342 342 343 343 343
313 313 312 312 312 312 313 313 313 313 313 313 313 313 314 314 314 314 314 313 312 312 312 312 312 312 311 311 311 312 313 314 313 314 314 315 315 316 316 317 317 318 320 321 321 322 322 322 323 324 325 326 327 327 328 329 329 329 330 330 331 332 332 333 333 334 334 334 335 336 336 336 338 337 336 337 339 340 341 341 341 341 342 342 342
313 312 312 312 312 312 312 312 312 312 312 312 312 312 312 313 313 313 313 312 312 312 311 311 311 311 311 311 310 310 311 313 313 313 313 313 314 315 315 315 315 316 317 317 317 318 319 319 319 320 320 321 322 323 325 326 327 328 328 329 330 330 330 331 331 332 333 333 334 335 335 336 338 337 336 336 337 339 339 339 340 341 341 342 342
312 312 311 311 311 312 312 312 312 311 311 311 311 310 311 311 312 312 312 311 311 311 311 310 310 310 310 309 307 306 308 309 310 311 311 312 313 314 313 313 313 313 313 312 312 312 313 315 315 316 317 317 318 319 321 321 322 324 325 327 328 329 330 330 331 331 332 332 333 333 334 335 337 338 337 336 335 336 337 337 338 339 339 340 341
311 311 310 310 310 311 311 311 311 310 310 310 310 310 310 310 310 310 310 310 310 310 310 309 309 309 308 306 305 304 305 306 306 306 307 308 309 310 309 309 309 309 309 308 308 308 309 309 310 311 312 313 314 315 316 317 318 319 321 322 323 325 327 328 329 330 331 331 331 331 331 332 334 336 336 335 335 336 337 337 337 338 337 338 339
311 310 309 308 310 311 311 311 310 309 309 310 309 309 310 309 309 309 309 309 309 309 308 308 308 308 307 305 302 302 305 305 305 305 304 304 305 306 306 306 306 306 306 305 306 306 306 306 306 307 308 309 311 312 313 314 314 315 316 318 319 320 321 322 324 326 328 329 329 329 330 331 332 333 334 335 335 335 336 336 336 337 337 338 338
310 309 306 306 309 310 310 310 310 309 309 309 309 309 309 309 309 309 308 308 308 308 308 307 306 307 306 304 301 302 305 305 305 305 304 304 304 304 304 304 305 305 305 304 304 304 304 304 304 304 305 306 307 308 309 310 311 312 313 314 315 316 317 318 320 322 323 325 326 327 328 329 330 330 331 333 333 334 334 334 335 336 336 336 338
309 309 307 305 308 309 309 309 309 309 309 309 309 309 309 308 308 308 308 307 307 307 307 307 305 305 305 303 302 303 304 304 304 305 304 304 304 303 303 303 303 303 303 303 303 303 303 302 302 303 303 303 303 304 305 306 307 308 309 310 312 312 313 314 316 317 319 320 321 322 323 325 326 326 327 328 330 331 331 332 333 333 333 334 336
308 309 308 306 308 309 309 309 309 309 309 309 308 308 308 308 308 308 307 307 307 307 307 306 305 305 304 302 301 303 304 304 304 304 304 304 303 303 303 303 302 302 302 302 302 302 302 301 301 301 301 301 302 302 302 303 303 304 305 306 308 309 309 310 311 312 314 315 316 317 318 320 321 322 323 323 325 327 328 329 330 330 331 332 333
308 309 308 308 308 309 309 309 309 308 308 308 308 308 308 307 307 307 307 307 306 306 306 306 305 305 304 302 302 303 304 304 304 304 303 303 303 303 303 303 302 302 302 301 301 302 301 300 300 300 299 300 300 300 300 301 301 302 302 302 303 305 305 307 308 308 309 311 312 313 314 315 317 318 318 319 320 322 323 324 325 326 328 329 330
307 308 309 309 309 309 309 308 308 308 308 308 307 307 307 307 307 307 307 306 306 306 306 305 305 305 304 302 302 303 304 304 304 303 303 303 303 303 303 302 302 302 301 301 301 301 301 300 300 299 298 298 298 298 298 298 299 299 300 300 300 301 302 303 304 305 306 308 309 309 310 311 313 314 315 316 317 318 318 319 320 321 322 323 325
307 308 309 309 309 309 308 308 308 308 307 307 307 307 307 306 306 306 306 306 305 305 305 305 304 304 304 303 302 303 303 303 303 303 303 303 302 302 302 302 302 301 301 301 301 301 301 301 300 299 299 298 298 297 297 297 297 298 298 298 298 298 299 300 301 302 303 304 305 307 308 309 310 312 313 313 314 315 315 316 317 318 319 320 321
309 310 310 309 309 309 308 308 308 308 307 307 307 307 306 306 306 306 306 305 305 305 305 304 304 304 304 303 303 303 303 303 303 303 303 302 302 302 302 301 301 301 301 301 301 301 301 300 300 300 300 299 299 298 297 297 298 297 297 297 298 298 298 298 299 299 300 301 302 304 305 307 308 309 310 311 312 312 312 313 315 316 317 318 319
310 310 309 309 309 308 308 308 307 307 307 307 307 306 306 306 306 306 305 305 305 305 304 304 304 304 303 303 303 303 303 303 303 302 302 302 302 302 301 301 301 301 301 301 301 301 300 300 300 300 300 300 300 299 298 297 297 297 297 297 297 297 298 298 298 297 298 299 300 302 304 305 307 307 308 309 310 310 310 311 313 315 316 317 317
310 309 309 309 309 309 308 308 307 307 307 306 306 306 306 306 306 305 305 305 305 305 304 304 303 303 303 303 303 303 303 302 302 302 302 302 302 301 301 301 301 301 301 301 301 301 300 300 300 300 300 300 300 299 299 298 298 298 298 298 298 297 297 297 297 297 297 297 298 300 302 305 306 307 308 308 308 308 309 309 310 313 315 314 314
310 309 310 310 309 309 309 308 308 308 307 307 307 306 306 306 305 305 305 305 305 304 304 304 303 303 303 302 302 302 302 302 302 302 302 302 301 301 301 301 300 301 301 301 301 301 300 300 300 300 300 300 300 299 299 299 299 298 298 297 298 298 297 297 297 297 297 297 297 298 300 303 304 306 308 310 309 309 309 308 309 311 312 312 312
310 310 310 310 310 310 310 309 309 309 308 308 308 307 306 306 305 305 305 304 304 304 303 303 303 303 302 302 302 301 302 302 301 301 301 301 301 301 301 300 300 300 300 300 300 300 300 300 300 300 300 300 300 299 299 299 299 299 298 297 298 298 298 298 298 297 297 297 297 297 298 299 301 304 307 309 310 311 311 310 310 310 311 311 312
311 311 311 311 310 310 310 310 310 309 309 308 308 308 307 306 305 305 304 304 304 303 303 303 303 303 302 302 302 301 301 301 301 301 301 301 301 301 301 300 300 300 300 300 300 300 300 300 300 300 300 300 300 300 300 299 299 298 298 298 298 298 298 298 298 298 298 298 297 297 298 300 302 303 305 307 308 310 311 311 311 311 311 312 312
311 310 311 311 311 311 310 310 310 310 309 309 309 308 308 307 306 306 305 304 304 303 303 303 303 302 302 302 302 301 301 301 301 301 301 300 300 300 300 300 300 300 300 300 300 300 300 300 300 300 300 300 300 300 299 299 299 299 299 299 299 299 299 299 298 298 298 298 297 298 300 302 303 303 304 305 306 307 308 309 310 311 311 312 312
311 311 311 311 311 311 311 311 310 310 310 309 309 309 308 308 307 307 306 305 304 304 303 303 303 303 302 302 302 301 301 300 300 300 300 300 300 300 300 300 300 300 300 300 300 300 300 300 300 300 300 300 300 300 299 300 300 300 300 300 299 299 299 299 299 299 299 298 298 299 301 303 303 303 304 304 304 304 305 307 308 309 310 310 310
Wind_Speed
15 16 17 18 19 20 21 21 21 21 20 18 17 17 17 17 16 16 16 15 15 14 12 12 12 12 12 13 13 14 13 13 13 14 14 14 14 15 15 16 16 16 15 15 15 17 19 21 22 24 24 23 22 22 22 23 24 23 22 22 22 21 19 19 19 19 18 17 16 15 14 14 14 15 16 15 15 16 17 18 20 20 21 22 23
14 15 16 17 18 19 20 21 21 21 21 18 17 16 16 17 17 17 17 16 16 15 14 14 13 12 12 13 14 14 15 14 14 14 14 14 14 14 15 16 17 16 16 16 16 18 20 22 23 23 23 24 25 24 24 25 24 21 22 23 23 23 22 21 20 20 19 18 17 17 16 16 15 14 15 16 16 16 15 16 19 19 19 20 21
15 17 18 17 17 19 19 20 21 21 20 18 16 15 15 15 16 17 17 17 17 16 17 17 16 14 13 13 14 14 15 15 14 14 15 15 15 15 15 15 16 15 16 17 17 19 21 23 23 23 24 26 25 25 27 27 25 23 23 24 24 24 23 22 21 21 20 19 18 18 18 18 18 17 16 16 17 17 17 18 20 18 18 20 20
15 18 18 16 17 18 18 20 21 20 19 18 16 15 15 15 15 16 17 17 18 18 18 18 18 16 14 13 14 14 15 15 14 14 15 15 15 15 15 15 16 16 16 17 18 20 23 24 23 23 24 24 22 23 27 30 29 28 27 25 25 25 25 24 23 21 21 20 19 18 17 17 19 22 21 18 17 17 19 22 22 20 20 21 19
15 18 16 14 15 17 17 19 20 19 17 17 16 16 15 15 15 15 15 17 18 18 19 19 18 17 17 16 15 15 15 15 15 14 14 15 15 16 15 15 16 16 17 17 18 21 23 23 23 23 24 25 24 23 25 27 29 31 30 29 29 27 26 25 25 23 22 22 21 19 18 18 20 24 23 20 20 20 20 23 24 22 21 21 20
16 17 15 14 14 15 16 17 18 18 17 17 18 17 16 15 16 16 15 16 17 17 18 19 19 17 17 17 17 16 15 15 16 16 15 14 15 16 16 16 16 16 17 19 19 20 21 21 21 22 23 25 25 24 24 26 28 30 32 32 31 30 27 23 23 23 22 22 21 20 20 20 20 23 24 23 24 23 22 23 24 25 24 21 20
17 16 15 15 15 15 17 17 17 17 17 17 18 18 17 16 16 16 16 16 16 16 17 18 19 19 18 17 17 17 16 15 15 17 16 14 13 15 16 17 17 17 18 20 20 21 21 20 20 20 22 23 24 25 27 29 30 32 33 32 32 33 31 26 23 24 23 22 22 21 21 21 20 22 26 26 25 25 26 23 20 22 25 23 21
18 17 16 16 16 17 18 18 17 16 16 17 17 18 18 17 17 16 16 16 17 17 17 17 18 19 19 18 17 17 17 16 14 16 16 14 13 14 15 16 17 18 19 20 21 21 22 21 20 20 21 22 23 24 27 29 30 32 32 31 31 33 34 32 29 27 26 24 22 21 21 21 21 22 24 27 28 27 27 25 21 21 23 23 23
19 20 19 18 18 19 19 18 17 16 16 16 16 17 18 18 18 18 17 17 17 18 18 17 18 18 19 19 19 17 17 15 14 15 17 17 16 17 16 15 16 18 20 21 21 22 22 21 22 22 23 24 25 25 25 26 28 31 31 31 30 29 30 33 32 29 27 23 21 20 21 22 22 21 22 27 32 30 27 26 26 25 25 25 26
21 22 22 21 20 20 19 18 18 17 17 16 16 17 17 18 18 19 19 19 19 19 19 18 18 19 20 20 19 19 17 15 15 16 17 18 18 18 18 17 17 17 19 21 22 22 22 21 22 24 24 25 27 27 26 25 26 29 30 30 30 29 28 30 31 29 28 27 24 22 22 25 25 22 22 26 29 30 29 29 28 28 27 27 27
23 23 23 23 22 20 19 18 18 18 18 18 17 17 18 18 19 19 20 21 20 20 20 19 19 21 22 21 20 19 18 16 17 18 18 18 18 18 18 18 18 18 18 20 21 22 23 23 24 24 22 24 26 26 26 27 26 26 27 28 29 30 30 29 28 27 28 29 27 24 25 29 29 25 24 23 24 26 28 28 28 29 29 28 27
24 23 23 22 21 19 19 19 19 18 18 18 18 18 18 19 19 19 20 21 21 21 20 20 20 21 22 22 21 20 19 19 19 19 18 18 18 18 19 18 19 19 19 19 19 20 21 22 23 24 22 23 25 24 24 25 24 23 23 23 25 28 31 31 29 29 28 28 28 28 30 32 31 28 26 25 24 26 24 22 24 27 29 29 30
23 22 21 21 20 20 20 20 20 20 19 19 19 18 18 18 19 19 20 21 22 22 21 21 21 21 21 21 21 21 20 19 19 19 19 18 18 19 19 19 19 20 20 20 18 18 20 19 20 23 23 22 23 24 23 22 22 21 19 20 22 24 27 29 31 32 32 29 30 32 32 32 32 32 31 29 27 26 21 17 20 26 29 30 31
21 20 20 20 20 21 21 21 21 21 20 20 19 19 18 18 19 20 21 22 22 22 22 22 21 20 20 20 21 22 21 19 19 19 18 19 19 19 19 19 19 19 21 21 19 18 19 18 18 20 20 21 23 24 22 20 20 21 21 23 24 22 23 25 28 30 32 32 32 33 33 33 34 33 33 32 31 30 27 20 18 22 25 25 27
20 21 21 21 22 22 22 22 22 22 22 22 20 20 20 20 20 20 21 21 21 22 23 23 22 20 19 19 20 21 21 21 21 19 18 18 19 19 19 19 19 19 19 20 20 20 19 18 17 18 19 20 21 21 19 19 21 21 22 24 23 20 21 24 26 27 30 31 32 32 32 32 33 33 32 30 30 31 33 30 25 25 27 27 29
21 22 22 23 23 23 23 22 23 23 23 22 21 21 21 21 21 21 21 21 21 22 23 24 23 21 19 19 19 19 19 20 22 21 18 18 19 19 19 18 19 19 19 19 20 20 19 18 17 18 18 20 19 17 15 17 20 20 22 23 22 21 24 26 25 25 26 28 29 30 31 31 31 32 31 30 28 28 30 30 28 28 30 31 31
23 24 24 25 25 24 23 22 22 23 22 22 21 22 22 22 21 21 22 21 21 22 22 22 22 21 20 19 19 19 19 20 22 22 19 17 18 18 18 18 18 19 19 19 19 20 19 18 18 18 18 19 20 17 14 14 17 19 21 22 23 24 27 27 24 24 25 26 28 29 29 30 30 31 31 31 30 29 29 29 28 28 28 30 30
23 23 23 24 24 23 22 20 20 22 22 22 22 22 22 22 21 21 21 21 21 21 21 20 20 20 20 19 18 19 19 19 20 21 20 18 18 17 17 18 19 19 19 19 19 20 20 19 19 19 18 17 18 18 16 15 17 19 19 20 22 24 24 22 21 23 24 25 26 27 28 29 29 30 31 32 32 32 31 31 31 31 31 31 31
20 21 22 22 22 21 20 19 19 21 21 21 20 20 21 22 21 21 20 20 20 20 19 19 19 19 18 18 17 17 17 17 17 19 20 20 18 17 17 18 19 19 19 20 20 20 20 19 19 19 18 17 16 17 17 16 16 18 19 20 22 23 22 20 19 22 23 23 24 26 27 28 29 30 31 31 32 33 33 32 32 33 33 31 31
19 20 20 20 19 19 19 19 19 19 19 19 18 19 20 21 20 20 20 19 18 19 19 19 18 18 18 17 17 16 16 16 16 17 18 18 18 17 17 17 19 19 19 20 20 20 20 19 17 18 19 18 16 16 16 16 17 18 19 21 23 23 22 20 19 21 21 21 22 23 24 25 27 29 31 31 31 33 34 33 33 34 34 32 32
18 19 19 18 18 18 18 18 18 18 18 19 19 19 18 18 18 18 19 19 19 20 19 17 17 18 18 17 17 18 17 16 16 16 16 17 17 17 17 17 19 20 20 20 20 20 20 20 19 19 20 19 17 16 17 17 18 19 19 20 22 23 23 21 21 21 21 21 22 24 25 25 26 28 30 30 31 33 34 34 35 35 34 33 33
16 18 18 18 18 17 16 17 17 17 18 20 20 18 17 17 16 16 17 18 18 19 18 17 16 16 17 16 17 18 18 17 17 16 15 15 15 14 15 16 17 19 20 21 21 20 21 21 21 21 21 21 19 18 18 19 20 21 20 21 22 24 24 23 22 23 23 22 23 25 27 29 30 30 30 30 31 32 33 34 34 35 35 34 34
16 17 17 18 18 16 16 18 18 18 20 20 19 18 17 17 17 16 16 17 17 17 17 18 17 17 17 18 17 18 18 18 18 18 17 16 16 16 16 16 15 16 19 21 21 21 21 21 21 22 22 22 22 21 20 19 20 20 20 20 22 23 24 24 24 24 24 23 24 26 27 28 29 30 30 30 30 31 32 32 32 33 34 34 35
17 17 17 17 17 15 16 18 19 19 19 19 19 18 17 17 17 17 16 17 18 18 17 18 18 18 18 18 18 19 20 19 19 20 20 20 20 20 20 19 18 17 19 21 22 22 22 22 23 23 23 23 23 22 22 22 21 21 20 19 20 22 22 23 24 25 26 26 26 27 27 27 27 29 30 30 30 30 31 32 32 32 33 34 35
17 18 18 17 17 15 16 17 17 17 17 17 18 18 18 17 17 17 17 17 18 19 18 17 18 18 19 19 19 20 22 22 21 22 23 23 22 21 20 20 20 19 20 21 21 21 22 22 23 23 23 23 23 24 24 24 23 22 21 20 21 23 23 23 23 25 26 27 27 27 27 27 27 27 28 29 30 31 32 32 32 33 32 32 33
17 18 18 18 17 16 16 16 16 16 16 17 16 17 17 16 15 16 18 19 18 17 16 16 18 20 21 21 22 23 23 24 25 26 26 26 24 21 19 19 18 18 18 18 17 18 19 19 20 21 21 21 22 23 24 25 25 25 24 22 23 24 24 24 23 24 25 26 27 27 27 28 27 27 27 28 29 31 31 30 31 32 32 32 33
18 18 18 17 17 17 17 16 15 15 16 16 15 14 14 15 15 17 19 20 18 16 17 19 22 24 24 22 22 22 23 24 27 29 29 29 28 26 24 22 21 18 16 16 16 17 18 19 19 19 20 20 20 21 22 23 25 25 24 22 21 22 23 23 23 23 23 24 26 27 27 27 26 25 26 27 28 29 28 27 29 31 31 31 32
18 18 17 16 16 17 17 15 14 14 14 15 14 13 14 15 16 16 18 19 19 17 20 23 24 24 23 21 20 21 22 24 27 29 29 30 30 28 27 26 25 21 17 15 15 15 16 17 17 17 17 18 18 18 19 19 20 21 19 18 19 19 19 20 22 23 23 23 23 25 27 27 26 25 25 26 27 26 25 25 27 28 28 28 29
17 17 17 16 16 17 17 15 14 13 13 13 12 12 13 14 15 15 16 19 19 18 19 22 22 22 22 20 19 20 22 24 26 27 27 26 25 24 25 25 25 23 19 17 16 15 15 16 15 15 15 15 16 16 16 16 17 16 15 16 18 17 16 18 20 21 21 21 21 21 23 26 28 27 26 26 25 24 23 23 24 25 25 25 26
18 17 16 15 16 16 16 16 15 13 13 13 12 12 13 13 13 16 18 18 17 17 19 19 19 19 20 19 18 19 20 23 24 23 22 19 18 19 21 21 22 22 21 19 17 14 12 13 13 12 12 11 12 13 13 14 15 14 14 16 18 18 17 18 19 19 19 18 19 19 20 22 25 27 27 27 26 25 23 23 25 26 26 25 25
18 17 16 16 16 16 15 15 15 14 12 12 12 13 13 12 12 15 18 18 16 16 18 17 15 15 18 18 17 17 18 19 20 20 19 18 17 17 18 19 20 20 20 19 15 11 10 11 12 12 12 11 11 11 11 12 13 13 13 15 16 17 18 18 18 20 18 15 15 17 19 20 21 23 24 24 25 25 25 26 27 27 27 26 27
18 17 16 15 15 14 14 15 15 14 13 13 13 12 13 13 12 14 16 17 16 17 18 17 14 14 16 17 17 18 18 18 19 20 19 18 17 16 16 17 17 17 17 17 14 11 10 10 11 12 13 13 14 15 14 13 13 13 14 14 13 13 14 14 16 19 18 15 15 17 19 20 20 21 21 21 23 25 27 29 30 30 30 29 29
17 16 15 15 14 13 14 14 15 15 14 14 14 13 12 13 14 14 13 14 15 16 18 18 16 15 17 18 18 18 18 17 18 18 18 17 16 14 13 12 13 13 13 12 11 10 10 10 10 11 11 12 13 15 16 16 17 16 16 17 16 16 16 16 17 18 17 17 17 18 18 18 19 21 22 21 22 24 25 25 25 26 29 32 31
15 14 14 14 13 13 14 14 13 14 14 13 14 14 13 13 13 13 13 14 14 14 15 15 16 17 19 18 18 18 17 17 17 17 17 17 16 14 12 11 12 13 13 13 14 15 14 13 12 12 12 12 12 13 14 14 15 15 16 17 18 19 18 18 18 18 17 18 19 19 18 17 17 20 21 21 22 24 25 24 22 22 25 28 29
13 13 13 13 12 12 13 13 12 13 13 13 14 15 15 14 13 12 13 14 15 15 14 12 13 17 19 19 20 19 17 16 16 16 17 18 17 16 17 18 18 18 17 16 16 17 18 18 16 15 15 14 14 14 14 14 14 14 14 15 16 16 17 17 18 18 17 18 19 20 20 20 18 17 18 20 21 22 23 24 24 22 20 21 23
13 13 12 11 10 11 12 12 12 13 13 13 14 14 14 15 14 14 14 14 14 16 15 13 13 16 17 18 20 19 17 18 19 18 18 19 19 19 20 20 20 20 19 17 16 15 17 19 20 19 18 17 17 16 16 16 15 15 13 13 13 14 14 14 15 16 16 18 19 19 19 19 17 16 17 19 19 18 17 18 20 21 21 20 21
12 12 12 11 10 10 11 12 13 13 13 14 14 14 14 15 15 14 15 15 15 15 15 15 16 16 16 18 21 19 17 18 19 18 18 19 19 18 18 16 16 16 17 18 18 16 15 18 21 21 20 20 19 18 17 17 17 17 15 13 12 12 12 12 12 12 13 15 17 17 17 17 17 17 18 19 20 20 19 19 18 19 19 19 20
10 12 14 12 10 10 11 12 13 14 14 14 14 14 15 16 15 14 15 16 15 15 16 16 17 17 17 20 21 18 16 17 18 17 17 17 16 16 16 14 14 15 15 16 18 17 16 18 21 21 21 22 21 20 19 18 18 19 18 16 14 12 12 11 10 10 11 12 13 14 14 15 16 18 18 19 20 21 21 19 19 20 20 20 19
9 11 13 13 11 10 11 12 12 13 14 14 14 15 15 15 15 15 16 16 16 16 16 17 17 16 17 20 19 17 17 19 19 18 18 16 15 15 15 14 14 15 14 15 16 17 17 19 21 22 23 24 24 24 23 22 21 21 20 19 17 15 14 13 12 11 11 10 11 13 14 14 15 16 16 17 18 18 19 19 19 20 22 22 21
10 10 13 14 13 11 11 12 13 14 14 14 15 14 15 15 15 15 15 16 16 16 16 17 17 16 17 20 20 17 17 19 19 18 18 17 15 15 15 14 14 14 14 14 15 15 16 19 22 24 25 25 25 25 25 25 24 23 23 22 21 19 18 17 15 14 13 13 12 12 12 12 12 13 13 14 14 15 16 18 19 20 22 23 24
11 10 12 14 13 12 11 12 13 14 14 14 15 14 15 15 16 16 15 15 16 16 16 16 15 15 18 21 21 19 17 17 17 17 18 17 17 16 16 15 14 14 13 13 13 13 15 18 20 23 24 25 24 25 25 25 25 25 25 25 24 23 22 20 18 16 15 14 13 14 14 14 13 12 12 13 12 11 12 14 16 18 20 22 23
11 11 12 12 12 13 13 13 14 14 14 14 15 15 15 16 16 16 15 15 15 15 15 15 15 15 18 21 21 19 16 15 16 16 17 17 17 17 16 15 14 14 13 13 12 12 12 14 16 19 23 24 24 24 25 25 26 26 26 26 26 25 24 23 21 20 18 16 14 14 15 14 14 13 13 13 12 11 11 12 13 15 16 18 20
12 12 12 12 12 13 13 14 14 14 15 15 15 15 15 15 15 15 15 15 15 15 15 15 15 15 16 19 20 18 15 15 16 16 16 16 16 16 15 14 14 15 15 14 14 13 12 12 13 14 17 20 23 24 24 25 25 26 26 26 26 26 26 25 24 24 22 20 17 16 15 14 13 12 12 13 13 13 13 12 12 13 13 14 14
10 10 11 12 13 14 14 14 14 14 15 15 15 15 15 15 15 15 15 15 16 16 15 15 16 15 15 17 17 16 15 15 16 16 16 16 16 16 15 14 13 14 15 15 14 14 14 13 13 13 13 14 17 21 23 24 24 25 25 25 25 25 26 26 26 26 25 24 22 19 16 15 14 13 12 12 12 13 13 12 12 12 12 12 11
10 11 12 13 13 14 14 15 15 15 15 15 15 15 15 15 15 15 15 15 16 16 16 16 16 15 15 15 15 15 14 14 14 15 15 15 15 15 15 15 14 14 14 14 14 15 15 14 14 15 15 14 14 17 20 22 23 24 24 24 24 25 25 25 25 25 25 25 24 21 19 17 16 15 15 13 13 13 13 12 12 13 13 12 12
10 12 12 12 12 13 13 14 15 15 15 16 16 15 15 15 15 15 15 14 14 15 15 15 15 15 14 14 14 14 14 14 14 14 14 14 15 15 15 15 14 13 13 14 14 14 15 14 14 15 15 15 14 14 16 17 19 21 23 24 24 24 24 23 23 23 23 23 23 22 20 18 16 14 14 14 13 13 13 13 13 13 13 14 14
9 11 11 11 12 13 13 13 14 14 14 15 15 15 15 15 15 15 14 14 14 14 14 15 15 14 14 14 14 14 14 13 13 14 14 14 15 15 15 15 14 13 13 13 13 13 14 14 14 14 15 15 15 14 14 14 14 17 22 24 24 24 24 23 22 22 22 22 22 22 20 18 16 15 14 15 15 14 13 13 14 14 14 14 13
8 9 10 11 12 12 12 13 13 13 14 15 15 15 16 16 16 15 15 15 14 14 14 14 14 14 14 14 14 14 13 13 12 13 13 13 14 14 14 15 15 14 13 13 13 13 13 13 14 14 15 15 14 14 14 14 14 17 21 23 23 22 23 23 23 23 22 22 22 22 19 17 17 16 16 15 15 14 13 13 13 14 14 14 13
7 7 7 9 11 11 12 13 13 13 14 14 15 16 16 16 16 16 16 15 15 14 14 14 13 13 14 14 13 13 13 13 12 12 12 13 13 13 14 14 15 14 14 14 13 14 14 13 13 13 13 14 14 13 13 13 16 20 22 23 22 22 22 22 22 23 22 22 23 21 18 17 17 17 16 15 15 14 14 13 13 13 13 13 14
8 8 8 8 10 11 12 13 13 14 14 14 15 16 16 16 17 18 17 16 16 15 15 14 14 14 14 13 13 13 13 12 12 11 11 12 13 13 13 13 14 14 13 13 13 13 13 13 13 12 12 12 12 12 12 14 19 22 22 22 22 23 22 22 22 22 22 23 23 21 17 16 17 17 16 17 16 15 14 14 13 12 12 13 14
8 9 9 9 10 12 13 13 14 14 14 14 14 15 15 16 17 18 18 17 16 15 15 15 15 15 14 13 12 12 12 12 11 11 10 11 12 13 13 13 13 13 13 13 12 12 12 12 12 11 11 11 11 11 13 17 21 22 22 22 23 24 23 23 22 22 21 22 22 19 16 16 18 17 17 17 18 17 16 15 14 14 14 14 15
Wind_Direction
28 26 24 21 19 17 14 11 8 3 357 350 345 343 341 342 342 340 338 335 332 330 327 323 318 313 308 301 296 291 285 282 282 283 279 273 270 269 269 269 266 259 252 246 242 238 236 237 237 235 238 240 232 229 232 231 225 223 226 228 228 228 226 226 231 236 238 238 241 239 231 229 226 224 226 225 227 237 237 228 225 227 230 230 230
15 14 14 12 9 8 7 5 2 358 354 345 339 337 335 335 336 338 338 335 332 330 327 324 322 319 313 307 304 299 294 288 284 281 281 279 275 270 267 268 268 263 256 249 243 241 240 242 243 237 237 242 237 232 236 235 227 225 228 229 231 230 227 229 232 235 238 237 237 239 235 232 232 231 232 232 232 235 235 228 224 226 229 229 231
3 2 3 3 360 359 358 355 354 353 350 341 331 328 329 329 329 331 331 331 330 326 324 324 324 321 316 311 309 307 303 296 288 282 279 278 277 272 267 265 265 263 259 253 246 245 245 246 247 242 235 238 238 236 240 240 233 229 228 227 230 233 231 231 232 233 235 236 235 237 238 235 234 235 234 233 235 237 235 228 222 223 228 228 230
355 356 357 353 352 353 352 350 349 346 344 340 331 323 323 324 325 325 324 324 324 323 322 322 322 321 317 312 309 308 307 303 296 286 279 277 276 274 270 267 265 260 257 254 250 250 252 251 251 247 240 236 236 239 244 245 240 236 234 230 230 233 233 231 232 233 234 236 236 236 238 238 238 241 237 232 235 238 239 237 230 228 229 229 231
348 352 353 345 344 345 345 347 347 344 339 336 332 326 323 322 323 323 323 320 319 320 319 319 319 319 317 314 311 308 306 304 301 295 286 278 273 271 271 270 269 265 259 255 251 251 255 257 254 251 246 239 236 238 243 245 244 241 240 239 236 237 237 233 231 234 235 236 237 236 239 243 249 250 244 236 237 238 241 243 238 235 235 234 237
347 350 348 340 338 339 338 339 341 341 338 332 330 329 326 323 322 321 321 319 317 316 315 316 317 315 314 313 311 309 306 302 301 301 297 290 281 274 270 266 266 267 265 260 255 252 256 259 257 253 250 245 240 239 239 243 246 246 243 240 238 239 241 235 231 234 235 235 237 239 242 244 249 254 250 245 244 243 243 246 242 237 236 237 238
347 347 345 341 338 336 336 337 336 335 335 331 329 328 327 326 324 321 319 317 316 314 313 314 315 313 312 312 310 309 307 303 301 300 299 297 291 283 277 271 266 266 269 269 265 259 257 256 257 254 251 249 246 243 243 244 246 247 246 244 241 242 243 240 235 234 235 236 238 239 243 242 243 251 255 255 254 249 247 249 247 239 236 237 240
347 344 341 340 338 337 337 338 335 333 331 329 327 326 325 325 324 323 321 318 316 316 313 312 311 310 310 310 309 307 304 303 302 297 295 297 293 288 284 279 273 268 268 271 271 267 262 258 257 255 253 254 251 246 247 248 246 246 246 244 242 242 242 241 239 234 232 236 240 239 241 242 241 245 251 254 254 251 250 250 249 244 238 237 241
345 341 339 338 337 337 336 335 332 329 327 325 324 323 322 322 322 321 320 318 316 315 314 312 310 308 307 306 306 305 303 301 297 292 292 295 295 295 292 286 281 275 269 269 271 270 267 262 259 256 254 256 254 250 250 251 249 248 246 241 238 237 237 239 241 238 232 231 237 242 243 242 241 240 242 248 253 253 252 250 248 249 247 244 246
341 339 337 335 334 333 333 331 328 325 323 321 320 320 319 318 318 317 316 316 314 313 313 312 309 307 305 304 303 303 302 299 294 293 293 291 291 293 293 290 287 283 276 272 271 271 270 267 264 263 262 261 259 257 256 254 252 251 248 242 238 237 237 237 240 242 241 240 242 247 246 243 243 244 245 252 257 255 253 252 248 247 248 247 248
337 335 333 331 330 329 327 325 323 321 320 319 318 317 316 316 315 314 314 314 314 314 313 310 306 304 304 303 301 301 300 297 295 296 295 292 289 287 288 290 289 287 282 278 275 274 272 270 268 266 266 267 267 264 261 258 257 256 253 249 245 243 242 239 238 240 244 245 244 245 247 248 250 250 251 254 254 250 248 249 248 245 243 244 246
332 330 328 327 327 325 323 322 320 319 318 317 317 316 315 314 314 313 313 314 314 314 312 309 305 303 303 303 301 300 298 296 296 296 296 294 290 286 285 287 288 288 286 284 281 279 276 274 272 269 266 268 269 266 263 263 262 260 260 259 255 249 246 246 246 247 247 246 245 245 248 252 252 252 253 253 251 251 248 241 241 243 242 245 251
328 327 326 325 325 323 321 320 319 318 317 316 315 314 313 313 313 312 312 313 313 312 311 310 307 305 304 302 301 299 298 296 295 295 296 294 291 288 286 284 284 285 286 286 282 278 277 277 279 280 278 274 270 267 266 268 267 264 263 262 259 255 251 249 250 251 250 249 248 249 250 252 253 254 255 255 252 252 247 235 238 247 248 250 253
326 324 323 323 322 320 320 319 317 316 315 314 314 313 311 310 312 313 313 312 312 312 311 311 309 308 306 304 303 303 302 300 296 294 295 294 290 287 286 285 283 282 284 285 283 280 281 279 277 281 282 277 273 271 269 268 266 263 259 257 254 254 255 253 251 249 248 246 248 251 252 253 255 257 258 258 256 252 249 248 251 255 253 250 250
323 322 321 320 319 319 318 317 315 314 313 313 313 312 310 310 311 313 312 311 310 310 310 310 310 309 307 305 304 305 305 303 301 300 298 295 291 289 288 287 284 282 281 282 282 282 284 283 278 277 277 273 270 270 267 264 264 261 258 255 249 245 250 254 253 250 249 248 249 253 255 256 258 260 260 261 260 257 257 258 259 260 259 256 254
322 320 320 320 319 319 318 316 315 314 313 313 312 313 313 312 312 312 312 310 308 308 308 308 308 308 307 305 304 304 304 303 303 304 304 300 294 291 290 288 285 281 278 277 279 280 281 283 281 280 282 282 280 276 269 265 265 262 260 260 257 253 254 256 254 253 252 252 254 256 257 258 259 260 261 261 259 259 260 260 260 261 262 260 258
322 321 322 322 321 319 319 317 315 313 313 313 313 313 312 310 310 311 311 309 306 306 306 305 305 307 306 305 304 302 302 304 304 305 308 306 300 294 292 290 286 282 279 277 277 278 278 280 280 280 284 287 287 286 279 270 267 264 261 261 260 257 257 258 258 257 255 255 256 258 258 259 258 257 257 258 257 257 257 257 257 259 261 261 261
326 325 325 326 325 323 322 319 314 311 311 311 310 310 310 308 309 310 309 308 305 303 303 302 302 305 306 306 305 302 303 307 307 308 311 311 306 300 294 290 286 283 282 279 277 278 278 278 279 279 281 283 285 288 284 272 267 265 263 261 259 258 258 257 257 258 258 256 256 257 258 259 258 256 255 255 255 254 253 253 254 256 257 258 261
332 330 329 331 330 328 325 320 313 309 308 309 308 308 308 307 309 310 308 306 303 301 301 301 302 305 306 307 307 306 306 309 308 309 314 316 313 306 297 291 289 287 285 283 279 277 276 277 278 279 279 278 277 280 283 278 270 265 262 259 259 260 260 255 251 254 257 257 256 258 260 260 259 259 258 257 254 252 251 251 252 251 251 252 255
334 331 333 334 329 328 327 324 322 321 319 319 317 315 313 312 314 315 311 306 305 304 303 302 304 305 306 309 312 312 313 314 313 313 317 322 321 315 304 295 290 287 284 282 281 280 279 279 281 282 280 276 271 270 276 280 277 270 261 255 257 261 262 258 250 249 252 254 255 257 259 260 260 259 258 257 255 252 250 250 251 250 248 249 251
335 333 336 334 327 326 328 329 332 332 329 328 326 325 325 322 320 318 315 315 317 314 310 311 314 313 313 316 318 319 322 324 325 327 328 329 328 322 311 300 292 287 283 281 281 282 282 280 279 279 279 279 277 274 274 276 276 272 264 257 256 258 259 258 252 249 251 254 255 255 254 255 256 258 258 256 254 252 250 249 249 249 249 249 250
337 337 338 334 330 330 330 331 334 330 327 330 331 330 330 326 323 323 321 321 321 320 320 324 324 318 318 320 318 319 324 327 327 327 326 326 327 322 311 303 296 293 291 287 282 280 279 279 280 280 279 279 279 278 278 277 275 273 271 267 262 259 258 258 257 257 257 256 255 256 255 254 254 258 261 258 254 252 251 251 250 249 248 248 249
341 342 341 338 337 335 333 335 335 330 328 329 330 330 331 329 330 330 325 322 324 326 327 326 323 323 326 325 320 319 322 323 321 318 316 318 321 317 311 305 298 294 293 290 286 282 279 277 277 277 277 277 275 275 277 276 274 275 277 275 270 266 263 263 261 258 257 256 256 257 257 256 256 257 257 257 255 253 252 251 252 250 249 249 250
341 342 342 341 341 340 338 339 340 337 334 334 332 332 333 334 337 336 331 329 329 328 328 327 328 333 336 334 330 327 327 325 319 314 313 315 315 312 308 304 298 293 289 287 286 284 281 278 277 277 277 276 275 274 275 275 274 276 278 278 277 273 268 266 264 261 259 258 257 257 258 258 257 257 257 256 256 256 254 251 251 253 254 253 253
338 338 339 340 341 342 340 339 341 342 342 342 340 338 336 338 343 342 338 337 334 331 333 336 337 338 337 335 334 333 332 329 323 316 314 314 314 313 309 303 297 291 287 287 286 284 282 280 279 279 278 276 275 274 274 275 276 275 275 276 279 279 277 275 272 269 266 263 259 257 258 258 257 258 260 258 254 253 254 252 252 254 255 254 255
336 336 338 339 340 341 340 339 341 344 345 345 346 345 341 343 347 343 339 341 341 338 339 340 339 336 333 329 328 329 330 328 323 319 319 321 324 327 325 319 308 293 284 285 287 286 285 284 281 279 278 276 275 273 272 274 276 277 277 276 275 276 278 279 278 277 274 270 264 259 257 258 258 257 258 259 257 255 255 255 253 252 252 252 253
336 337 340 340 340 341 342 341 341 342 344 347 350 350 348 347 350 348 343 345 349 348 342 340 337 334 331 328 326 327 327 325 322 321 324 329 334 335 334 334 330 315 296 291 291 286 283 283 282 282 282 280 279 276 274 273 275 276 277 276 272 273 275 277 278 279 277 273 268 262 259 259 259 257 258 259 258 258 259 258 253 253 255 253 252
336 338 341 341 340 340 342 343 339 339 344 348 350 352 351 348 351 351 342 339 344 345 340 338 337 335 334 334 331 330 329 326 324 326 329 331 333 334 334 337 337 331 316 303 301 299 295 291 288 287 287 285 284 283 282 281 279 278 278 276 271 271 274 276 278 280 279 276 272 266 261 257 258 261 261 258 256 257 259 256 251 251 252 249 247
338 339 341 342 340 340 343 344 341 339 343 345 346 349 345 340 343 346 337 332 336 339 339 341 340 337 336 337 335 333 331 328 327 327 327 328 329 330 332 335 336 334 328 316 310 315 321 316 307 299 295 293 292 291 291 288 283 281 282 279 273 270 270 271 275 278 279 278 275 270 266 262 260 260 260 258 259 260 258 257 256 254 251 245 243
338 339 340 340 339 341 344 345 343 341 340 340 340 340 337 335 338 338 335 335 339 342 344 346 345 342 341 341 337 332 327 325 327 331 333 335 335 332 331 330 329 330 331 325 317 315 320 321 316 311 310 308 304 300 295 289 286 285 283 281 280 280 276 273 275 277 277 278 277 274 273 272 269 268 267 266 267 265 259 257 259 260 257 253 249
339 340 340 339 340 343 344 344 343 342 341 341 339 334 334 340 343 337 335 339 345 346 346 347 351 355 355 348 340 335 331 332 340 348 350 348 344 338 334 332 329 327 329 329 324 314 306 302 301 305 311 313 311 310 302 294 293 294 290 287 289 290 287 284 285 282 277 279 282 281 281 281 279 279 279 276 273 269 264 261 261 262 262 260 256
340 339 339 339 341 343 343 343 344 344 344 345 343 338 337 342 344 341 340 341 342 342 345 348 355 3 5 360 352 346 345 349 356 357 355 353 349 341 335 335 336 335 332 327 323 318 313 307 300 301 304 304 305 307 306 303 302 301 297 294 295 295 294 293 293 290 286 285 287 285 284 284 283 284 285 281 275 271 267 264 264 263 261 259 259
340 338 338 340 343 343 343 343 343 344 345 345 344 344 344 342 341 341 342 342 340 339 342 347 351 355 359 3 1 353 349 354 2 2 1 1 357 348 341 343 348 351 347 342 342 344 343 341 334 326 320 314 308 304 302 301 301 299 297 297 296 296 294 292 292 293 292 289 287 285 284 284 284 285 287 283 277 273 271 269 267 261 257 257 257
338 336 338 342 344 343 343 343 341 340 343 345 344 345 347 346 342 339 339 343 345 343 340 344 347 346 348 355 1 358 355 358 6 12 13 12 11 11 12 11 9 11 13 14 16 17 13 8 2 356 349 342 331 321 313 307 302 298 296 296 295 296 297 297 297 297 294 289 286 285 283 281 281 286 289 285 276 272 272 273 269 263 258 257 256
339 339 340 343 347 345 343 342 340 339 342 346 345 344 345 347 346 341 338 342 346 344 342 344 343 340 341 348 355 358 1 2 7 16 21 21 23 29 32 30 27 24 24 23 21 21 21 20 18 14 9 4 358 349 340 333 326 319 311 305 300 299 300 302 302 300 300 300 297 291 284 277 271 273 280 283 281 283 283 280 277 276 271 263 258
344 343 343 346 350 349 345 344 343 343 346 347 346 344 345 346 346 345 344 344 345 344 344 345 342 339 341 348 351 356 4 4 2 8 16 20 25 30 30 29 27 25 24 24 20 18 20 21 21 20 17 14 12 8 2 354 349 342 334 326 320 314 310 308 304 301 301 303 303 300 293 283 272 266 267 271 277 285 290 288 288 290 289 280 270
343 342 346 352 353 351 350 349 347 349 352 350 347 347 348 346 347 349 347 345 347 347 345 345 345 344 348 352 353 358 5 2 356 358 6 12 19 25 24 20 18 18 20 23 22 19 18 20 23 23 21 19 17 15 13 9 4 358 352 345 341 338 334 330 325 317 310 306 305 303 297 289 285 283 280 278 278 280 283 285 287 289 290 287 283
345 342 347 356 1 357 356 355 352 353 356 354 351 352 351 348 349 351 349 346 348 349 348 348 349 349 351 352 353 357 3 1 358 0 4 5 11 16 17 15 16 15 15 19 21 21 19 21 25 27 27 26 24 21 19 19 17 12 5 358 355 354 351 347 343 334 325 317 313 312 308 302 299 298 294 290 286 283 282 281 279 279 281 281 279
359 347 348 1 12 7 0 360 358 357 357 357 355 354 352 351 352 353 351 349 350 351 350 350 352 353 352 352 353 357 1 2 3 5 5 5 8 11 12 14 15 15 16 17 20 23 22 24 28 31 32 31 29 26 25 26 26 24 18 9 3 3 4 4 1 356 351 346 339 334 329 321 314 310 307 302 296 292 289 285 281 281 283 281 276
10 356 354 7 18 13 3 2 3 2 359 357 356 354 354 354 354 353 352 350 350 352 353 352 353 353 349 352 4 14 8 2 3 4 4 5 7 8 11 13 13 13 17 18 18 21 23 26 31 33 33 33 32 29 28 27 27 27 27 22 15 11 11 12 12 11 11 13 11 5 357 347 336 331 328 321 312 304 299 294 290 288 288 286 282
16 7 3 8 14 13 8 5 4 3 359 357 356 355 355 356 354 352 353 352 350 353 353 351 353 350 340 346 9 27 19 2 2 5 5 6 8 8 10 13 11 11 15 15 15 17 21 25 29 31 32 32 31 30 29 29 27 26 26 26 23 19 14 12 12 13 13 14 17 20 18 13 9 6 0 352 343 332 323 316 309 302 297 293 289
20 17 11 10 10 10 10 7 4 1 359 359 358 355 355 356 354 352 353 351 351 353 351 348 351 350 341 345 4 21 16 3 4 6 5 6 8 8 8 10 10 11 12 12 12 13 15 18 23 28 30 31 30 29 29 29 28 26 24 23 23 21 17 13 11 10 10 10 12 16 18 15 13 14 16 15 13 10 4 355 343 334 325 313 301
24 17 12 12 12 10 8 6 3 1 359 359 357 354 354 354 353 352 352 350 350 351 349 346 348 350 347 350 359 7 6 2 4 5 5 6 7 7 6 6 8 9 9 9 10 10 11 13 16 21 25 27 28 28 28 26 26 25 24 22 20 19 17 14 10 7 6 6 7 9 10 8 4 4 8 12 14 17 19 13 0 352 348 336 318
24 14 12 14 12 9 7 5 2 0 359 358 356 354 353 353 351 350 351 351 350 349 348 345 346 348 349 351 355 359 360 360 1 2 3 4 6 5 3 2 5 8 8 7 8 8 8 8 9 9 11 15 20 24 26 25 24 23 21 20 18 16 14 13 10 5 1 1 3 3 4 3 359 355 356 1 3 6 9 7 359 353 353 350 339
21 17 17 15 11 9 9 6 3 2 0 359 356 354 353 351 349 349 350 350 349 348 347 345 345 346 348 350 352 353 355 357 358 359 359 360 2 3 2 0 3 6 5 2 4 6 5 5 6 6 5 5 7 13 19 22 23 21 19 18 17 15 13 12 9 3 358 357 358 359 359 0 359 355 352 352 354 355 356 354 352 349 347 346 346
26 21 18 14 11 11 10 9 8 6 4 2 360 356 353 350 348 348 347 345 344 346 346 345 345 345 346 346 348 349 350 352 353 354 355 356 357 359 359 358 359 2 2 359 0 2 2 1 1 2 3 2 360 1 8 13 16 16 15 14 13 13 12 10 7 2 358 355 356 357 355 353 353 353 352 351 349 349 346 343 343 344 342 340 341
26 18 14 12 12 11 10 9 8 7 6 5 3 359 356 352 349 347 345 343 343 344 344 343 344 345 345 344 345 345 346 347 349 350 352 354 354 354 355 355 356 357 357 356 356 357 357 357 358 357 357 358 357 357 359 1 3 7 9 9 8 7 6 4 3 1 357 355 355 355 352 349 348 350 353 354 352 347 343 339 340 340 338 336 336
21 17 16 13 11 9 7 6 4 3 4 4 2 360 359 357 353 349 347 345 345 345 344 342 342 342 341 342 342 342 341 342 343 345 348 350 351 351 351 352 353 354 353 352 352 352 352 352 354 354 353 353 353 355 357 357 358 2 5 5 4 2 1 360 358 357 355 354 353 350 348 351 354 353 350 349 348 345 342 339 337 336 335 333 332
3 5 5 2 3 4 1 359 359 358 357 357 357 356 357 357 355 353 350 347 344 343 342 341 340 339 339 338 338 338 338 338 338 340 342 344 346 348 349 349 350 350 350 349 349 349 348 348 348 350 351 351 352 353 353 356 1 4 5 3 2 1 0 359 356 353 352 352 350 347 347 351 351 347 343 340 338 338 339 338 335 334 333 331 329
341 344 340 339 345 350 349 348 349 348 347 348 349 349 350 353 355 353 350 347 345 343 341 339 339 338 337 336 334 334 335 334 333 334 337 339 342 344 346 346 347 347 347 346 345 345 345 345 345 346 348 350 352 353 354 359 4 4 2 0 359 358 358 357 354 351 350 349 348 349 350 346 340 338 339 339 335 332 333 333 332 329 327 325 324
325 328 324 323 329 335 337 337 337 337 337 337 339 341 343 347 349 348 348 348 346 341 338 339 338 334 333 333 332 332 332 330 329 330 332 335 339 340 342 343 344 344 344 344 342 342 344 345 345 346 349 350 351 354 358 0 0 358 355 354 354 352 351 350 349 348 347 347 347 351 351 341 335 336 339 338 335 334 335 334 332 329 326 324 324